Content
SEND FEEDBACK

Daily
Averages
Monthly
Summary
United States of America

ASHEVILLE, NORTH CAROLINA


Home > North America > United States > North Carolina
Elevation: 2240 feet     Latitude: 35 36N     Longitude: 082 32W

WEATHER
 
SELECT A DAY
Number of Records: 226,720;   Date Range: 1/1/95 - 9/16/14
 
SHARE

PRINT THIS DATA

[ ← Previous Day ]
WEATHER ALMANAC - JUNE 28, 2013
[ Next Day → ]
[ °C ]   °F
We're sorry. There is no daily almanac available for Asheville, North Carolina on June 28, 2013.
WEATHER BY HOUR - JUNE 28, 2013
[ °C ]   °F
Local TimeTemperatureDewpointHumidityBarometerVisibilityWind DirectionWind SpeedGust SpeedPrecipitationEventsConditions
1:54 AM69.1 °F66.9 °F93 %29.80 in10.0 miCalmClear
2:37 AM66.2 °F66.2 °F100 %29.88 in2.5 miCalmPartly Cloudy
2:42 AM66.2 °F66.2 °F100 %29.88 in1.2 miCalmScattered Clouds
2:47 AM66.2 °F66.2 °F100 %29.88 in1.5 miCalmMostly Cloudy
2:52 AM66.2 °F66.2 °F100 %29.88 in3.0 miCalmScattered Clouds
2:54 AM66.9 °F66.0 °F97 %29.79 in5.0 miCalmScattered Clouds
3:31 AM64.4 °F64.4 °F100 %29.87 in2.0 miWest (260°)3.5 mphPartly Cloudy
3:38 AM64.4 °F64.4 °F100 %29.87 in1.2 miWest (260°)3.5 mphScattered Clouds
3:46 AM66.2 °F64.4 °F94 %29.87 in2.0 miCalmScattered Clouds
3:54 AM66.0 °F64.9 °F96 %29.79 in9.0 miNNW (340°)3.5 mphPartly Cloudy
4:54 AM66.9 °F64.9 °F93 %29.78 in10.0 miNorth (350°)5.8 mphClear
5:54 AM66.9 °F64.9 °F93 %29.78 in10.0 miNNW (330°)10.4 mphClear
6:54 AM68.0 °F64.0 °F87 %29.79 in10.0 miNW (320°)10.4 mphClear
7:54 AM69.1 °F64.9 °F87 %29.78 in10.0 miNNW (330°)13.8 mphClear
8:54 AM75.0 °F64.9 °F71 %29.78 in10.0 miNNW (340°)11.5 mphClear
9:54 AM80.1 °F64.0 °F58 %29.76 in10.0 miNW (320°)12.7 mphClear
10:54 AM82.9 °F63.0 °F51 %29.75 in10.0 miNNW (330°)18.4 mphClear
11:54 AM82.9 °F64.9 °F54 %29.75 in10.0 miWNW (300°)6.9 mphClear
12:54 PM82.9 °F62.1 °F49 %29.73 in10.0 miNW (310°)6.9 mphClear
1:54 PM84.0 °F62.1 °F47 %29.73 in10.0 miWest (270°)5.8 mph0.01 inMostly Cloudy
2:54 PM84.0 °F62.1 °F47 %29.69 in10.0 miNW (320°)9.2 mphPartly Cloudy
3:54 PM84.0 °F62.1 °F47 %29.67 in10.0 miNW (320°)5.8 mphScattered Clouds
4:54 PM86.0 °F63.0 °F46 %29.65 in10.0 miVariable4.6 mphClear
5:54 PM81.0 °F64.9 °F58 %29.64 in10.0 miWNW (300°)3.5 mphOvercast
6:54 PM79.0 °F66.9 °F66 %29.64 in10.0 miNorth (350°)8.1 mphOvercast
7:54 PM71.1 °F68.0 °F90 %29.70 in10.0 miNW (320°)10.4 mph0.02 inMostly Cloudy
8:54 PM70.0 °F66.9 °F90 %29.68 in10.0 miNNW (340°)9.2 mph0.00 inRainLight Rain
9:54 PM68.0 °F66.0 °F93 %29.68 in10.0 miWest (260°)4.6 mph0.00 inClear
10:54 PM68.0 °F66.0 °F93 %29.68 in10.0 miVariable3.5 mphMostly Cloudy
11:54 PM68.0 °F66.0 °F93 %29.69 in10.0 miNW (320°)6.9 mphMostly Cloudy
Hourly data recorded from KAVL, located miles away from Asheville, North Carolina







STORIES FROM OUR PARTNERS